User: anonymous   Login
Location: Kosice
(0.0000°N, 21.2500°E)
Time: 01:39:33
(UTC+01:00)
Language:

Cosmos 1892 - Orbit

View from above orbital plane
View from above orbital plane
View from above satellite
View from above satellite

Ground track
Ground track

The orbit data is extracted from the following two-line orbital elements,

1 18421U 87088A   21332.50045513  .00001256  00000-0  59978-4 0  9997
2 18421  82.4986 109.6533 0015438  32.8654 327.3537 15.18032309864786
Epoch (UTC): 28 November 2021 12:00:39
Eccentricity: 0.0015438
inclination: 82.4986°
perigee height: 501 km
apogee height: 522 km
right ascension of ascending node: 109.6533°
argument of perigee: 32.8654°
revolutions per day: 15.18032309
mean anomaly at epoch: 327.3537°
orbit number at epoch: 86478

The dashed part of the orbit path shows where the satellite is in the earth's shadow,  

DLR